| time (UTC) | temp C | wind direction | speed KPH | gust KPH | rain 1hr cm | rain 24hr cm | rain mn cm | humidity % | barometer mb |
| 20260503001016 | 27 | 0.0 | 0.0 | 0.00 | 0.00 | 0.00 | 12 | 1017.1 | |
| 20260503000016 | 27 | 0.0 | 0.0 | 0.00 | 0.00 | 0.00 | 13 | 1016.7 | |
| 20260502235016 | 27 | 0.0 | 0.0 | 0.00 | 0.00 | 0.00 | 12 | 1016.7 | |
| 20260502234056 | 27 | 0.0 | 0.0 | 0.00 | 0.00 | 0.00 | 9 | 1016.5 | |
| 20260502233016 | 28 | 0.0 | 0.0 | 0.00 | 0.00 | 0.00 | 10 | 1017.2 | |
| 20260502232015 | 28 | 0.0 | 0.0 | 0.00 | 0.00 | 0.00 | 8 | 1016.6 | |
| 20260502231015 | 27 | 0.0 | 0.0 | 0.00 | 0.00 | 0.00 | 8 | 1016.5 | |
| 20260502230016 | 28 | 0.0 | 0.0 | 0.00 | 0.00 | 0.00 | 7 | 1017.0 | |
| 20260502225016 | 28 | 0.0 | 0.0 | 0.00 | 0.00 | 0.00 | 8 | 1017.1 | |
| 20260502224015 | 28 | 0.0 | 0.0 | 0.00 | 0.00 | 0.00 | 8 | 1017.0 | |
| 20260502223015 | 28 | 0.0 | 0.0 | 0.00 | 0.00 | 0.00 | 10 | 1017.1 | |
| 20260502222016 | 28 | 0.0 | 0.0 | 0.00 | 0.00 | 0.00 | 8 | 1017.1 | |
| 20260502221016 | 28 | 0.0 | 0.0 | 0.00 | 0.00 | 0.00 | 7 | 1017.1 | |
| 20260502220037 | 28 | 0.0 | 0.0 | 0.00 | 0.00 | 0.00 | 8 | 1017.2 | |
| 20260502215015 | 28 | 0.0 | 0.0 | 0.00 | 0.00 | 0.00 | 9 | 1017.5 | |
| 20260502214016 | 28 | 0.0 | 0.0 | 0.00 | 0.00 | 0.00 | 8 | 1017.6 | |
| 20260502213015 | 27 | 0.0 | 0.0 | 0.00 | 0.00 | 0.00 | 8 | 1017.2 | |
| 20260502212015 | 27 | 0.0 | 0.0 | 0.00 | 0.00 | 0.00 | 12 | 1017.3 | |
| 20260502211016 | 27 | 0.0 | 0.0 | 0.00 | 0.00 | 0.00 | 12 | 1017.6 | |
| 20260502210016 | 26 | 0.0 | 0.0 | 0.00 | 0.00 | 0.00 | 12 | 1017.5 | |
| 20260502205016 | 27 | 0.0 | 0.0 | 0.00 | 0.00 | 0.00 | 12 | 1018.1 | |
| 20260502204015 | 27 | 0.0 | 0.0 | 0.00 | 0.00 | 0.00 | 13 | 1018.3 | |
| 20260502203015 | 26 | 0.0 | 0.0 | 0.00 | 0.00 | 0.00 | 13 | 1018.0 | |
| 20260502202016 | 26 | 0.0 | 0.0 | 0.00 | 0.00 | 0.00 | 14 | 1018.1 | |
| 20260502201015 | 26 | 0.0 | 0.0 | 0.00 | 0.00 | 0.00 | 14 | 1018.3 | |
| 20260502200015 | 25 | 0.0 | 0.0 | 0.00 | 0.00 | 0.00 | 15 | 1018.1 | |
| 20260502195037 | 25 | 0.0 | 0.0 | 0.00 | 0.00 | 0.00 | 15 | 1018.2 | |
| 20260502194018 | 24 | 0.0 | 0.0 | 0.00 | 0.00 | 0.00 | 16 | 1017.9 | |
| 20260502193017 | 25 | 0.0 | 0.0 | 0.00 | 0.00 | 0.00 | 16 | 1018.6 | |
| 20260502192017 | 25 | 0.0 | 0.0 | 0.00 | 0.00 | 0.00 | 16 | 1018.8 | |
| 20260502191017 | 25 | 0.0 | 0.0 | 0.00 | 0.00 | 0.00 | 17 | 1018.9 | |
| 20260502190017 | 24 | 0.0 | 0.0 | 0.00 | 0.00 | 0.00 | 18 | 1018.6 | |
| 20260502185017 | 24 | 0.0 | 0.0 | 0.00 | 0.00 | 0.00 | 19 | 1018.8 | |
| 20260502184017 | 23 | 0.0 | 0.0 | 0.00 | 0.00 | 0.00 | 20 | 1018.9 | |
| 20260502183017 | 23 | 0.0 | 0.0 | 0.00 | 0.00 | 0.00 | 21 | 1018.6 | |
| 20260502182018 | 22 | 0.0 | 0.0 | 0.00 | 0.00 | 0.00 | 22 | 1018.9 | |
| 20260502181017 | 22 | 0.0 | 0.0 | 0.00 | 0.00 | 0.00 | 22 | 1018.7 | |
| 20260502164017 | 20 | 0.0 | 0.0 | 0.00 | 0.00 | 0.00 | 33 | 1018.7 | |
| 20260502163016 | 20 | 0.0 | 0.0 | 0.00 | 0.00 | 0.00 | 34 | 1018.8 | |
| 20260502162017 | 20 | 0.0 | 0.0 | 0.00 | 0.00 | 0.00 | 33 | 1018.7 | |
| 20260502161016 | 19 | 0.0 | 0.0 | 0.00 | 0.00 | 0.00 | 37 | 1018.6 | |
| 20260502152037 | 18 | 0.0 | 0.0 | 0.00 | 0.00 | 0.00 | 41 | 1017.9 | |
| 20260502151016 | 17 | 0.0 | 0.0 | 0.00 | 0.00 | 0.00 | 45 | 1017.4 | |
| 20260502123016 | 11 | 248 | 12.9 | 24.1 | 0.00 | 0.00 | 0.00 | 71 | 1013.0 |
| 20260502122016 | 11 | 248 | 19.3 | 30.6 | 0.00 | 0.00 | 0.00 | 72 | 1012.9 |
| 20260502121016 | 11 | 248 | 14.5 | 25.7 | 0.00 | 0.00 | 0.00 | 71 | 1013.1 |
| 20260502115015 | 11 | 270 | 9.7 | 19.3 | 0.00 | 0.00 | 0.00 | 71 | 1013.1 |
| 20260502114015 | 11 | 248 | 9.7 | 22.5 | 0.00 | 0.00 | 0.00 | 72 | 1013.1 |
| 20260502113016 | 12 | 248 | 11.3 | 24.1 | 0.00 | 0.00 | 0.00 | 71 | 1013.2 |
| 20260502112036 | 12 | 248 | 19.3 | 33.8 | 0.00 | 0.00 | 0.00 | 70 | 1012.6 |
| 20260502111037 | 12 | 270 | 6.4 | 25.7 | 0.00 | 0.00 | 0.00 | 71 | 1012.6 |
| 20260502110037 | 12 | 270 | 8.0 | 29.0 | 0.00 | 0.00 | 0.00 | 71 | 1012.7 |
| 20260502105015 | 12 | 270 | 24.1 | 33.8 | 0.00 | 0.00 | 0.00 | 70 | 1013.0 |
| 20260502104016 | 12 | 270 | 24.1 | 33.8 | 0.00 | 0.00 | 0.00 | 72 | 1013.1 |
| 20260502103016 | 12 | 248 | 20.9 | 30.6 | 0.00 | 0.00 | 0.00 | 71 | 1013.0 |
| 20260502102015 | 13 | 248 | 19.3 | 30.6 | 0.00 | 0.00 | 0.00 | 71 | 1012.9 |
| 20260502101015 | 13 | 248 | 20.9 | 29.0 | 0.00 | 0.00 | 0.00 | 71 | 1012.8 |
| 20260502091015 | 13 | 248 | 4.8 | 17.7 | 0.00 | 0.00 | 0.00 | 68 | 1013.2 |
| 20260502071018 | 15 | 248 | 6.4 | 17.7 | 0.00 | 0.00 | 0.00 | 62 | 1013.6 |
| 20260502070018 | 15 | 248 | 3.2 | 14.5 | 0.00 | 0.00 | 0.00 | 62 | 1013.8 |
| 20260502065017 | 15 | 248 | 4.8 | 16.1 | 0.00 | 0.00 | 0.00 | 62 | 1013.9 |
| 20260502064038 | 15 | 248 | 3.2 | 12.9 | 0.00 | 0.00 | 0.00 | 61 | 1013.8 |
| 20260502063037 | 16 | 248 | 3.2 | 11.3 | 0.00 | 0.00 | 0.00 | 61 | 1014.2 |
| 20260502062017 | 16 | 248 | 6.4 | 14.5 | 0.00 | 0.00 | 0.00 | 60 | 1014.2 |
| 20260502061037 | 16 | 248 | 11.3 | 22.5 | 0.00 | 0.00 | 0.00 | 60 | 1014.2 |
| 20260502060017 | 16 | 248 | 9.7 | 22.5 | 0.00 | 0.00 | 0.00 | 59 | 1014.0 |
| 20260502055015 | 16 | 248 | 9.7 | 16.1 | 0.00 | 0.00 | 0.00 | 55 | 1014.0 |
| 20260502054035 | 17 | 248 | 3.2 | 9.7 | 0.00 | 0.00 | 0.00 | 53 | 1014.4 |
| 20260502053035 | 17 | 248 | 9.7 | 22.5 | 0.00 | 0.00 | 0.00 | 52 | 1014.4 |
| 20260502052015 | 17 | 270 | 16.1 | 25.7 | 0.00 | 0.00 | 0.00 | 51 | 1014.2 |
| 20260502051017 | 17 | 248 | 14.5 | 25.7 | 0.00 | 0.00 | 0.00 | 50 | 1014.0 |
| 20260502050018 | 17 | 248 | 14.5 | 24.1 | 0.00 | 0.00 | 0.00 | 47 | 1014.1 |
| 20260502045017 | 18 | 248 | 14.5 | 29.0 | 0.00 | 0.00 | 0.00 | 46 | 1014.5 |
| 20260502044015 | 18 | 248 | 16.1 | 25.7 | 0.00 | 0.00 | 0.00 | 44 | 1014.2 |
| 20260502043017 | 18 | 248 | 19.3 | 32.2 | 0.00 | 0.00 | 0.00 | 42 | 1014.0 |
| 20260502042017 | 18 | 248 | 22.5 | 35.4 | 0.00 | 0.00 | 0.00 | 40 | 1013.8 |
| 20260502041017 | 18 | 248 | 22.5 | 33.8 | 0.00 | 0.00 | 0.00 | 38 | 1013.8 |
| 20260502040017 | 19 | 248 | 20.9 | 32.2 | 0.00 | 0.00 | 0.00 | 37 | 1013.8 |
| 20260502035017 | 19 | 248 | 20.9 | 30.6 | 0.00 | 0.00 | 0.00 | 36 | 1014.1 |
| 20260502034026 | 19 | 248 | 19.3 | 30.6 | 0.00 | 0.00 | 0.00 | 34 | 1013.9 |
| 20260502033017 | 20 | 248 | 19.3 | 30.6 | 0.00 | 0.00 | 0.00 | 34 | 1013.8 |
| 20260502032017 | 20 | 248 | 19.3 | 29.0 | 0.00 | 0.00 | 0.00 | 32 | 1013.7 |
| 20260502031037 | 20 | 248 | 17.7 | 29.0 | 0.00 | 0.00 | 0.00 | 31 | 1014.0 |
| 20260502030017 | 20 | 248 | 14.5 | 22.5 | 0.00 | 0.00 | 0.00 | 30 | 1014.0 |
| 20260502025016 | 21 | 270 | 12.9 | 22.5 | 0.00 | 0.00 | 0.00 | 29 | 1013.9 |
| 20260502024017 | 21 | 270 | 14.5 | 25.7 | 0.00 | 0.00 | 0.00 | 28 | 1013.8 |
| 20260502023038 | 21 | 270 | 16.1 | 25.7 | 0.00 | 0.00 | 0.00 | 29 | 1013.5 |
| 20260502022016 | 21 | 248 | 16.1 | 30.6 | 0.00 | 0.00 | 0.00 | 27 | 1013.6 |
| 20260502021016 | 21 | 248 | 24.1 | 38.6 | 0.00 | 0.00 | 0.00 | 26 | 1013.2 |
| 20260502020016 | 22 | 0.0 | 25.7 | 0.00 | 0.00 | 0.00 | 25 | 1013.1 | |
| 20260502015058 | 22 | 0.0 | 0.0 | 0.00 | 0.00 | 0.00 | 24 | 1012.8 | |
| 20260502014016 | 22 | 0.0 | 0.0 | 0.00 | 0.00 | 0.00 | 26 | 1012.5 | |
| 20260502013017 | 22 | 0.0 | 0.0 | 0.00 | 0.00 | 0.00 | 26 | 1012.8 | |
| 20260502012017 | 23 | 0.0 | 0.0 | 0.00 | 0.00 | 0.00 | 26 | 1012.7 | |
| 20260502011016 | 23 | 0.0 | 0.0 | 0.00 | 0.00 | 0.00 | 26 | 1012.8 | |
| 20260502010016 | 23 | 0.0 | 0.0 | 0.00 | 0.00 | 0.00 | 26 | 1012.8 | |
| 20260502005017 | 23 | 0.0 | 0.0 | 0.00 | 0.00 | 0.00 | 27 | 1013.2 | |
| 20260502004036 | 23 | 0.0 | 0.0 | 0.00 | 0.00 | 0.00 | 26 | 1013.0 | |
| 20260502003016 | 23 | 0.0 | 0.0 | 0.00 | 0.00 | 0.00 | 27 | 1012.8 | |
| 20260502002017 | 24 | 0.0 | 0.0 | 0.00 | 0.00 | 0.00 | 27 | 1012.8 |